Hourly Data Report for September 23, 2017

All times are specified in Local Standard Time (LST). Add 1 hour to adjust for Daylight Saving Time where and when it is observed.

RANKIN INLET A
NUNAVUT

62°48'38.000" N
92°06'53.000" W
32.30 m
2303405
71083
YRT

Download Data

Hourly Data (September 2017)
Hourly Data Report for September 23, 2017
Temp Definition
°C
Dew Point Temp Definition
°C
Rel Hum Definition
%
Wind Dir Definition
10's deg

Wind Spd Definition
km/h
Visibility Definition
km
Stn Press Definition
kPa
Hmdx Definition


Wind Chill Definition


Weather Definition


TIME
00:00 Legend Double Dagger 2.1 -1.5 77 32 8 24.1 101.83     Mainly Clear
01:00 Legend Double Dagger 0.1 -1.6 88 34 6 24.1 101.86     LegendNANA
02:00 Legend Double Dagger -0.8 -1.8 93 33 12 24.1 101.84   -5 LegendNANA
03:00 Legend Double Dagger -0.6 -1.2 96 34 11 24.1 101.86   -4 Mainly Clear
04:00 Legend Double Dagger -1.2 -1.8 96 34 13 24.1 101.86   -5 LegendNANA
05:00 Legend Double Dagger -1.2 -1.7 96 35 6 24.1 101.90   -3 LegendNANA
06:00 Legend Double Dagger -0.8 -1.7 93 36 8 24.1 101.93   -4 Mainly Clear
07:00 Legend Double Dagger -0.5 -1.5 93 36 10 24.1 101.95   -4 LegendNANA
08:00 Legend Double Dagger 0.2 -0.8 93 34 10 24.1 101.98     LegendNANA
09:00 Legend Double Dagger 2.1 0.7 91 35 12 24.1 101.98     Mainly Clear
10:00 Legend Double Dagger 3.6 0.4 79 35 12 24.1 101.99     LegendNANA
11:00 Legend Double Dagger 4.5 -0.6 69 35 14 24.1 101.96     LegendNANA
12:00 Legend Double Dagger 5.3 -1.6 61 35 10 24.1 101.96     Mainly Clear
13:00 Legend Double Dagger 5.8 -2.6 55 33 10 24.1 101.95     LegendNANA
14:00 Legend Double Dagger 6.2 -3.1 51 31 9 24.1 101.96     LegendNANA
15:00 Legend Double Dagger 5.9 -3.2 52 3 5 24.1 101.95     Mainly Clear
16:00 Legend Double Dagger 6.2 -2.2 55 33 9 24.1 101.95     LegendNANA
17:00 Legend Double Dagger 4.9 -2.4 59 33 13 24.1 101.94     LegendNANA
18:00 Legend Double Dagger 2.2 -1.4 77 32 16 24.1 101.96     Mainly Clear
19:00 Legend Double Dagger 1.5 -1.0 84 33 16 24.1 101.98     LegendNANA
20:00 Legend Double Dagger 0.7 -1.1 88 35 16 24.1 101.97     LegendNANA
21:00 Legend Double Dagger 0.3 -1.2 90 34 14 24.1 101.97     Mainly Clear
22:00 Legend Double Dagger -0.4 -1.1 94 34 14 24.1 101.98   -5 LegendNANA
23:00 Legend Double Dagger -0.6 -1.6 93 35 13 24.1 102.00   -5 LegendNANA

Notes on Data Quality.

Legend

  • E = Estimated
  • M = Missing
  • NA = Not Available
  • ‡ = Partner data that is not subject to review by the National Climate Archives
Date modified: